AO-07 1 07530U 74089B 19332.18389104 -.00000041 00000-0 22765-4 0 9997 2 07530 101.7695 298.3129 0012464 34.4176 35.3253 12.53641012 60880 UO-11 1 14781U 84021B 19332.09470140 .00000096 00000-0 17835-4 0 9992 2 14781 97.6005 349.0401 0009430 139.0084 221.1841 14.83123528922832 LO-19 1 20442U 90005G 19332.36569869 -.00000004 00000-0 14969-4 0 9994 2 20442 98.6670 274.2147 0012430 34.5712 325.6277 14.32938937559672 HUBBLE 1 20580U 90037B 19332.88995698 .00000435 00000-0 15492-4 0 9991 2 20580 28.4684 212.7395 0002857 83.4651 34.3269 15.09306021425563 MET-2/21 1 22782U 93055A 19332.80983796 -.00000024 00000-0 -34807-4 0 9995 2 22782 82.5508 33.6204 0023607 81.6650 57.8848 13.83823204325423 AO-27 1 22825U 93061C 19332.73152434 -.00000010 00000-0 14371-4 0 9997 2 22825 98.9158 325.1927 0007485 241.1721 118.8709 14.30072258365259 IO-26 1 22826U 93061D 19332.76512614 -.00000017 00000-0 11554-4 0 9998 2 22826 98.9099 325.1983 0008117 228.6445 131.4039 14.30406593365465 FO-29 1 24278U 96046B 19331.85748660 -.00000029 00000-0 55657-5 0 9994 2 24278 098.5618 103.4654 0350411 179.5009 180.6548 13.53094713149484 NOAA-15 1 25338U 98030A 19332.56031735 .00000020 00000-0 27116-4 0 9992 2 25338 98.7357 353.4485 0011273 126.7198 233.5019 14.25941155120465 GO-32 1 25397U 98043D 19332.45996592 -.00000014 00000-0 13038-4 0 9992 2 25397 98.7058 270.7391 0000429 340.4624 19.6538 14.23675042111034 ISS 1 25544U 98067A 19332.92430821 .00001163 00000-0 28350-4 0 9990 2 25544 51.6453 264.5572 0006625 337.5020 111.2745 15.50052781200812 NO-44 1 26931U 01043C 19332.19041169 -.00000041 00000-0 16130-4 0 9999 2 26931 67.0510 304.3492 0007356 265.0775 94.9486 14.30560080948211 SO-50 1 27607U 02058C 19332.13648464 -.00000030 00000-0 16568-4 0 9995 2 27607 64.5552 272.9356 0071346 224.6764 134.8578 14.75591721911006 CO-55 1 27844U 03031E 19332.02921668 .00000052 00000-0 43018-4 0 9991 2 27844 98.6840 337.8170 0008838 282.8765 77.1425 14.22207820851363 CO-57 1 27848U 03031J 19332.27885990 .00000031 00000-0 34136-4 0 9997 2 27848 98.6914 338.5944 0008763 295.2948 64.7321 14.21799102851246 RS-22 1 27939U 03042A 19332.74422850 .00000015 00000-0 11399-4 0 9992 2 27939 98.0631 105.6146 0011699 271.2427 88.7438 14.66820428864448 NOAA-18 1 28654U 05018A 19332.56389135 .00000104 00000-0 80780-4 0 9999 2 28654 99.0751 21.8061 0015165 80.9793 279.3093 14.12470189748515 CO-58 1 28895U 05043F 19332.14026335 .00000144 00000-0 36555-4 0 9993 2 28895 97.9821 109.5376 0016532 194.7523 165.3200 14.63715202751246 Falconsat-3 1 30776U 07006E 19332.45669336 .00002230 00000-0 61868-4 0 9996 2 30776 35.4336 131.4337 0001935 168.5500 191.5271 15.36849516705730 CO-65 1 32785U 08021C 19332.85387734 .00000203 00000-0 27510-4 0 9993 2 32785 97.5584 324.9515 0014593 82.7379 277.5497 14.88381088627951 AAUSAT2 1 32788U 08021F 19332.78415765 .00000778 00000-0 76248-4 0 9993 2 32788 97.4932 341.2780 0012165 20.4474 339.7232 14.94871638629282 DO-64 1 32789U 08021G 19332.41713116 .00001506 00000-0 10372-3 0 9990 2 32789 97.4455 17.0276 0010678 290.2708 69.7372 15.07286390631474 CO-66 1 32791U 08021J 19331.99244601 .00000281 00000-0 33817-4 0 9992 2 32791 97.5323 330.2347 0014689 60.6637 299.6047 14.90920021628293 RS-30 1 32953U 08025A 19332.70489708 .00000021 00000-0 75656-4 0 9994 2 32953 82.5067 43.3827 0020236 133.0718 227.2060 12.43092441522564 PRISM 1 33493U 09002B 19332.11651502 .00000092 00000-0 13604-4 0 9991 2 33493 98.1279 259.2615 0015607 9.8179 350.3343 14.96820380589445 NOAA-19 1 33591U 09005A 19332.55452875 .00000013 00000-0 32724-4 0 9990 2 33591 99.1906 327.7063 0013070 283.2055 76.7657 14.12385015556892 TISAT-1 1 36799U 10035E 19332.74307694 .00000324 00000-0 38692-4 0 9992 2 36799 98.1741 130.5289 0011007 271.2713 88.7244 14.91213827509067 JUGNU 1 37839U 11058B 19332.40895687 .00000325 00000-0 31648-4 0 9996 2 37839 19.9618 68.0255 0018914 321.4899 102.3003 14.12665700420299 SRMSAT 1 37841U 11058D 19332.77565740 .00000297 00000-0 17964-4 0 9996 2 37841 19.9707 125.9527 0011790 188.0499 302.5397 14.10644339419745 AO-71 1 37854U 11061E 19332.53544947 .00001037 00000-0 60402-4 0 9992 2 37854 101.7108 314.5520 0159561 302.0875 56.4931 15.06826708441515 HRBE 1 37855U 11061F 19332.41588955 .00001876 00000-0 10059-3 0 9990 2 37855 101.7234 311.6215 0172381 314.3831 44.3370 15.05834029441267 ALMASAT-1 1 38078U 12006B 19327.61910074 .00077210 59655-5 30359-3 0 9990 2 38078 69.4207 170.9052 0117290 13.2210 49.6952 15.76849986422252 HORYU-2 1 38340U 12025D 19332.09924386 .00000184 00000-0 34859-4 0 9993 2 38340 98.3104 15.4042 0010745 332.1242 27.9389 14.75780286405112 RS-40 1 38735U 12041C 19332.75520016 .00000019 00000-0 70036-4 0 9998 2 38735 82.4726 126.4339 0016439 239.7318 120.2130 12.42579880332802 BEESAT-3 1 39135U 13015F 19332.44602711 .00000904 00000-0 53671-4 0 9993 2 39135 64.8668 233.6229 0041201 280.6489 78.9998 15.17761906364942 BEESAT-2 1 39136U 13015G 19332.80892891 .00000983 00000-0 58784-4 0 9991 2 39136 64.8692 236.7556 0030478 285.8878 73.8889 15.17179129364910 ZACUBE-1 1 39417U 13066B 19332.78709910 .00000183 00000-0 29339-4 0 9991 2 39417 97.5614 337.1165 0057979 218.1048 141.6059 14.81184656325184 TRITON-1 1 39427U 13066M 19332.17011300 .00000220 00000-0 43048-4 0 9999 2 39427 97.6980 299.6932 0113982 6.0401 354.2149 14.67912279322172 GOMX-1 1 39430U 13066Q 19332.74645663 .00000217 00000-0 47860-4 0 9993 2 39430 97.7669 278.7269 0152253 100.0149 261.8274 14.59314835320388 LO-74 1 39440U 13066AA 19332.53257107 .00000197 00000-0 34481-4 0 9995 2 39440 97.6131 321.4471 0078751 276.1539 83.0704 14.75923330323997 AO-73 1 39444U 13066AE 19332.08930733 .00000252 00000-0 37290-4 0 9995 2 39444 97.5578 338.5516 0057215 213.4610 146.2985 14.82017539323985 SPROUT 1 39770U 14029E 19332.76575945 .00000672 00000-0 80185-4 0 9999 2 39770 97.8911 75.0762 0007896 272.0267 88.0023 14.87520432299070 DUCHIFAT-1 1 40021U 14033M 19332.05311018 .00000337 00000-0 40206-4 0 9994 2 40021 97.9303 257.2153 0011644 231.6577 128.3594 14.90748019295733 NANOSATCBR1 1 40024U 14033Q 19332.77069158 .00000244 00000-0 31237-4 0 9992 2 40024 97.9180 254.9253 0010959 233.1142 126.9072 14.89943832295729 EO-79 1 40025U 14033R 19332.32742926 .00000313 00000-0 39260-4 0 9996 2 40025 97.9083 251.7441 0011112 242.1021 117.9071 14.89028378295520 DTUSAT-2 1 40030U 14033W 19332.77165569 .00000241 00000-0 31907-4 0 9993 2 40030 97.8985 250.0616 0010627 235.5255 124.4959 14.88613898295510 EO-80 1 40032U 14033Y 19332.04393536 .00000285 00000-0 36634-4 0 9992 2 40032 97.8991 249.3373 0010528 238.9984 121.0199 14.88559067295398 ANTELSAT 1 40034U 14033AA 19332.61211659 .00000210 00000-0 38601-4 0 9996 2 40034 97.7364 192.6665 0057443 291.3269 68.1814 14.74170275292671 VELOX-1 1 40057U 14034E 19332.79812644 .00000317 00000-0 51859-4 0 9990 2 40057 98.2546 99.6044 0012007 74.3867 285.8666 14.77755717291856 DAURIA DX 1 1 40071U 14037C 19332.68642945 .00000119 00000-0 22810-4 0 9997 2 40071 98.4431 135.0986 0009511 66.6355 293.5858 14.81312510291381 UKUBE-1 1 40074U 14037F 19332.79096613 .00000350 00000-0 49104-4 0 9999 2 40074 98.4492 144.1810 0005892 56.7734 303.4062 14.84144391291849 HODOYOSHI-1 1 40299U 14070B 19332.74272463 .00000748 00000-0 34176-4 0 9993 2 40299 97.3384 49.0211 0012669 181.0461 294.6039 15.23533319281090 CHUBUSAT-1 1 40300U 14070C 19332.83129947 .00000701 00000-0 33311-4 0 9993 2 40300 97.3143 42.7682 0019308 198.7758 299.8086 15.22267943280835 QSAT-EOS 1 40301U 14070D 19332.84742274 .00002012 00000-0 79516-4 0 9993 2 40301 97.3150 46.7393 0025611 178.4037 318.2746 15.26360302281170 FIREBIRD FU3 1 40377U 15003B 19332.78422321 .00001728 00000-0 71196-4 0 9993 2 40377 99.1174 346.5565 0124538 266.9969 91.7003 15.19350572266684 FIREBIRD FU4 1 40378U 15003C 19332.83625937 .00001593 00000-0 65917-4 0 9992 2 40378 99.1177 346.7052 0124753 266.7055 91.9896 15.19363468266695 GRIFEX 1 40379U 15003D 19332.72842395 .00001496 00000-0 67292-4 0 9990 2 40379 99.1217 339.6459 0133223 288.4944 70.1845 15.15890631266284 NO-84 1 40654U 15025D 19331.49635625 .00010606 00000 0 13852-3 0 7856 2 40654 54.9853 153.3216 0129562 24.2224 336.4786 15.49994179137519 DEORBITSAIL 1 40719U 15032E 19331.93106752 .00000415 00000-0 66165-4 0 9990 2 40719 97.8896 220.2886 0017016 138.4334 221.8173 14.76851482236202 NUDT-PHONESAT 1 40900U 15049B 19332.84233153 .00002463 00000-0 10657-3 0 9996 2 40900 97.4353 340.6162 0012046 339.3021 98.5887 15.23334834232493 XW-2A 1 40903U 15049E 19332.85160373 .00001933 00000-0 46725-4 0 9990 2 40903 97.3178 16.3961 0011682 275.5705 199.3975 15.42369406235393 XW-2C 1 40906U 15049H 19332.73216343 .00000934 00000-0 52222-4 0 9998 2 40906 97.4715 332.1667 0014694 0.4624 114.0662 15.15842765231697 XW-2D 1 40907U 15049J 19332.82245578 .00000796 00000-0 44788-4 0 9995 2 40907 97.4698 331.9402 0013951 357.7639 124.9462 15.16044854231727 LILACSAT-2 1 40908U 15049K 19332.91870976 .00000642 00000-0 38969-4 0 9996 2 40908 97.4839 330.6658 0015936 4.7511 56.3030 15.13904280231507 XW-2E 1 40909U 15049L 19332.86623341 .00001368 00000-0 70420-4 0 9997 2 40909 97.4619 335.1029 0013169 351.7193 94.2597 15.18053315231949 XW-2F 1 40910U 15049M 19332.81712601 .00001184 00000-0 62240-4 0 9999 2 40910 97.4652 334.1899 0014297 349.2454 93.0805 15.17563816231756 XW-2B 1 40911U 15049N 19332.91716463 .00000974 00000-0 54132-4 0 9998 2 40911 97.4717 332.7106 0013866 358.4667 61.1672 15.15975408231630 DCBB 1 40912U 15049P 19332.86246757 .00001456 00000-0 70857-4 0 9995 2 40912 97.4503 338.1325 0013933 328.5660 115.7013 15.19911003232094 TW-1C 1 40926U 15051B 19332.74860074 .00014534 00000-0 18587-3 0 9996 2 40926 97.1152 18.8690 0008556 118.7792 20.0042 15.59282710235535 TW-1A 1 40928U 15051D 19332.86997919 .00002798 00000-0 68405-4 0 9994 2 40928 97.1308 0.5045 0010421 191.4366 342.1563 15.41593115234306 IO-86 1 40931U 15052B 19324.69785557 -.00020420 00000-0 -29507-2 0 9996 2 40931 5.9963 31.2247 0013118 192.9224 166.9491 14.76583141224210 LQSat 1 40958U 15057A 19332.17800263 .00000022 00000-0 10967-4 0 9990 2 40958 97.8814 36.8302 0019544 80.8981 279.4438 14.73097948222728 AO-85 1 40967U 15058D 19331.32411908 .00000352 00000 0 58041-4 0 8811 2 40967 64.7767 27.5739 0180337 149.0833 212.1042 14.76037114131593 ATHENOXAT-1 1 41168U 15077C 19332.72473333 .00001894 00000-0 64358-4 0 9992 2 41168 14.9879 101.0240 0011419 201.5334 158.4507 15.13946540218720 ChubuSat-2 1 41338U 16012B 19332.77304703 .00000285 00000-0 15409-4 0 9996 2 41338 31.0021 188.3257 0013975 278.3689 81.5362 15.00214157207426 ChubuSat-3 1 41339U 16012C 19332.79021183 .00000315 00000-0 17635-4 0 9994 2 41339 31.0117 186.1011 0013981 286.5527 73.3576 15.00385150207424 Horyu-4 1 41340U 16012D 19332.26414362 .00000428 00000-0 25716-4 0 9997 2 41340 31.0038 179.2648 0014188 301.6562 58.2690 15.01366710207460 OUFTI-1 1 41458U 16025C 19332.77214643 .00001906 00000-0 99421-4 0 9993 2 41458 98.1001 67.9233 0165699 168.2276 192.2900 15.06246528197112 e-st@r-II 1 41459U 16025D 19332.82873193 .00002088 00000-0 10931-3 0 9991 2 41459 98.0994 67.5437 0166860 169.6884 190.7831 15.05854178197094 AAUSAT4 1 41460U 16025E 19332.79279987 .00003469 00000-0 17384-3 0 9993 2 41460 98.0984 69.1854 0157136 160.8886 199.8327 15.07924716197242 LO-87 1 41557U 16033B 19332.84753643 .00001144 00000-0 45085-4 0 9999 2 41557 97.4133 59.3843 0015341 82.6838 277.6144 15.27564411194991 NuSat2 1 41558U 16033C 19332.80899461 .00001265 00000-0 46795-4 0 9998 2 41558 97.4169 60.9307 0014367 82.1895 278.0976 15.29492934195068 Lapan A3 1 41603U 16040E 19332.87441690 .00000240 00000-0 14308-4 0 9998 2 41603 97.3404 27.3688 0013261 181.2786 294.3297 15.19770934190522 Swayam 1 41607U 16040J 19332.16287043 .00001554 00000-0 67550-4 0 9990 2 41607 97.3466 31.0391 0013514 172.8757 187.2675 15.23692470190615 Pratham 1 41783U 16059A 19332.16990226 .00000081 00000-0 24871-4 0 9992 2 41783 98.0474 27.9875 0032590 231.5327 128.2950 14.63023241169309 AlSat 1N 1 41789U 16059G 19332.77139735 .00000085 00000-0 25050-4 0 9999 2 41789 98.0502 30.9311 0027657 217.8239 142.1015 14.64279231169516 ScatSat 1 41790U 16059H 19332.68072147 .00000024 00000-0 16983-4 0 9992 2 41790 98.1902 13.6680 0005358 169.1533 190.9778 14.50895636167962 TY-1 1 41844U 16066D 19332.87890102 .00001036 00000-0 44959-4 0 9998 2 41844 97.4050 338.3471 0014334 340.1434 68.3154 15.24520502169550 Pegasus-1 1 41846U 16066F 19331.56049905 .00000264 00000-0 49363-4 0 9998 2 41846 098.6921 014.1858 0368275 117.0502 246.8769 14.37657041159818 CAS-2T 1 41847U 16066G 19332.70760627 .00000072 00000-0 20462-4 0 9993 2 41847 98.6854 15.8662 0366852 109.8040 254.3084 14.38023265160429 EO-88 1 42017U 17008BX 19332.67803154 .00001407 00000-0 57660-4 0 9992 2 42017 97.3861 37.9649 0005149 327.7939 32.2985 15.25934059154773 nSIGHT1 1 42726U 98067MF 19332.80064705 .00034468 00000-0 18336-3 0 9998 2 42726 51.6305 190.1324 0004456 118.7631 241.3819 15.80109930143528 CAS-4B 1 42759U 17034B 19332.70893803 .00000323 00000-0 33166-4 0 9999 2 42759 43.0199 55.3854 0011641 205.7053 290.5885 15.09692149135473 CAS-4A 1 42761U 17034D 19332.73013499 .00000184 00000-0 24674-4 0 9999 2 42761 43.0202 54.6991 0012020 206.4576 291.3432 15.09769022135477 UCLSat 1 42765U 17036A 19332.62244108 .00001152 00000-0 51779-4 0 9998 2 42765 97.3310 26.9883 0011956 25.0136 335.1678 15.23069372135262 NIUSat 1 42766U 17036B 19332.37304389 .00000904 00000-0 43289-4 0 9990 2 42766 97.3305 24.7562 0015887 16.0552 344.1184 15.21366905134964 LituanicaSAT 2 1 42768U 17036D 19332.38898142 .00001837 00000-0 80134-4 0 9994 2 42768 97.3353 26.4796 0015071 14.6222 345.5448 15.23326037135075 Aalto 1 1 42775U 17036L 19332.17976798 .00000755 00000-0 36484-4 0 9990 2 42775 97.3290 24.9146 0014289 17.0758 343.0956 15.21550678134913 URSA MAIOR 1 42776U 17036M 19332.71733632 .00000766 00000-0 36809-4 0 9992 2 42776 97.3300 25.6417 0014035 15.2660 344.8997 15.21703840135002 Max Valier Sat 1 42778U 17036P 19332.43170951 .00000891 00000-0 41633-4 0 9992 2 42778 97.3347 26.3479 0012663 20.6510 339.5236 15.22273660134997 Pegasus 1 42784U 17036V 19332.41156986 .00001074 00000-0 48850-4 0 9991 2 42784 97.3315 26.5484 0012555 26.0396 334.1470 15.22795436135025 NUDATSat 1 42787U 17036Y 19332.89112453 .00001561 00000-0 67415-4 0 9996 2 42787 97.3353 27.9862 0012947 17.7920 342.3770 15.23904311134994 SUCHAI 1 1 42788U 17036Z 19332.70036083 .00001218 00000-0 54264-4 0 9998 2 42788 97.3320 27.2466 0012045 24.2661 335.9141 15.23265810135160 SKCUBE 1 42789U 17036AA 19331.80812646 .00001270 00000-0 56643-4 0 9997 2 42789 097.3317 026.2831 0012016 027.5143 332.6727 15.23140547134949 VZLUSAT 1 1 42790U 17036AB 19331.82798680 .00001607 00000-0 69365-4 0 9991 2 42790 097.3336 026.9437 0011454 026.6247 333.5577 15.23893817134983 VENTA 1 1 42791U 17036AC 19331.58416881 .00001262 00000-0 56302-4 0 9999 2 42791 097.3315 026.1142 0011702 028.9731 331.2154 15.23143578134905 Robusta 1B 1 42792U 17036AD 19332.37750024 .00001214 00000-0 54019-4 0 9998 2 42792 97.3318 27.0302 0011559 26.4339 333.7485 15.23320549135050 D-SAT 1 42794U 17036AF 19332.67096889 .00000218 00000-0 24516-4 0 9997 2 42794 97.5199 10.0292 0125347 318.8364 40.3452 14.91176626132622 TechnoSat 1 42829U 17042E 19332.75824890 .00000220 00000-0 27636-4 0 9992 2 42829 97.5434 218.6608 0012909 233.8172 126.1854 14.91028372129238 QIKCOM-1 1 42983U 98067NF 19332.80724024 .00003493 00000-0 48726-4 0 9991 2 42983 51.6391 240.7393 0004149 29.5511 330.5716 15.59954195118796 AO-91 1 43017U 17073E 19332.75524063 .00000878 00000-0 73879-4 0 9994 2 43017 97.7243 247.7366 0257539 347.7209 11.7801 14.78719261109359 EcAMSat 1 43019U 98067NG 19332.74558526 .00006277 00000-0 73050-4 0 9998 2 43019 51.6400 232.8871 0004071 15.7027 344.4093 15.63184723201213 PICSAT 1 43132U 18004X 19332.43571127 .00001275 00000-0 55679-4 0 9995 2 43132 97.4720 39.8101 0010804 50.4643 309.7547 15.23926979104284 AO-92 1 43137U 18004AC 19332.70509411 .00000936 00000-0 41916-4 0 9999 2 43137 97.4709 40.0062 0010441 51.4707 308.7464 15.23740512104313 TianYi 2 1 43155U 18008A 19332.89776863 .00000677 00000-0 43776-4 0 9998 2 43155 97.4724 41.8874 0019093 120.3496 352.3894 15.11351474102472 Zhou Enlai 1 43156U 18008B 19332.86514875 .00001347 00000-0 84520-4 0 9996 2 43156 97.4771 41.7270 0016182 118.6662 352.8017 15.10873963102434 TianYi 6 1 43158U 18008D 19332.75762057 .00000827 00000-0 53986-4 0 9997 2 43158 97.4719 40.9245 0015317 118.4991 358.1899 15.10434058102371 S-Net G 1 43186U 18014G 19332.01944687 .00000587 00000-0 56413-4 0 9996 2 43186 97.7013 238.0197 0011149 174.5067 185.6279 14.96712943 99414 S-Net H 1 43187U 18014H 19332.75466486 .00000638 00000-0 60892-4 0 9997 2 43187 97.7012 238.7277 0011226 172.0035 188.1367 14.96713852 99522 S-Net J 1 43188U 18014J 19331.88538489 .00000561 00000-0 54182-4 0 9994 2 43188 97.7013 237.8941 0011135 175.1588 184.9743 14.96712428 99393 S-Net K 1 43189U 18014K 19331.88574148 .00000584 00000-0 56134-4 0 9991 2 43189 97.7010 237.8688 0011149 174.9910 185.1425 14.96712234 97944 FMN 1 1 43192U 18015A 19332.72413001 .00002571 00000-0 10608-3 0 9993 2 43192 97.4194 98.6709 0017600 81.1495 26.3372 15.24832948101153 Shaonian Xing 1 43199U 18015H 19332.75771788 .00001840 00000-0 75878-4 0 9991 2 43199 97.3982 97.4769 0018639 91.3588 45.6474 15.25200417101211 1KUNS-PF 1 43466U 98067NP 19332.81655200 .00029905 00000-0 21106-3 0 9996 2 43466 51.6339 222.6673 0002417 123.4637 236.6593 15.73782059 88535 UBAKUSAT 1 43467U 98067NQ 19332.74036488 .00014786 00000-0 14135-3 0 9995 2 43467 51.6349 232.7042 0001008 32.7741 327.3317 15.66966161 88400 Irazu 1 43468U 98067NR 19332.15657123 .00065515 00000-0 32389-3 0 9993 2 43468 51.6342 217.4177 0003510 148.2509 211.8706 15.81427268188539 EnduroSat One 1 43551U 98067NZ 19331.74790045 .00021279 00000-0 19121-3 0 9999 2 43551 51.6355 239.5749 0005479 60.8642 299.2902 15.68187639 78456 EQUISat 1 43552U 98067PA 19332.02759736 .00017630 00000-0 17517-3 0 9997 2 43552 51.6376 241.4964 0005896 53.8318 306.3223 15.65828049 78412 UiTMSat 1 1 43589U 98067PD 19331.80490008 .00018582 00000-0 17935-3 0 9997 2 43589 51.6347 242.9097 0005523 64.1969 295.9597 15.66515236 74119 Maya 1 1 43590U 98067PE 19331.98970651 .00020859 00000-0 20047-3 0 9993 2 43590 51.6349 241.9016 0005626 64.5933 295.5645 15.66532851 74079 Bhutan 1 1 43591U 98067PF 19332.29308825 .00019775 00000-0 18975-3 0 9999 2 43591 51.6353 240.2163 0005764 66.1551 294.0049 15.66611370 74129 SiriusSat 1 1 43595U 98067PG 19332.12143191 .00018285 00000-0 18428-3 0 9996 2 43595 51.6350 243.5339 0002920 39.6005 320.5203 15.65450190 73240 SiriusSat 2 1 43596U 98067PH 19332.29652396 .00017360 00000-0 17635-3 0 9999 2 43596 51.6360 243.2570 0003318 36.0058 324.1160 15.65292668 73265 Tanusha-3 1 43597U 98067PJ 19332.77538033 .00023322 00000-0 20702-3 0 9998 2 43597 51.6334 236.6046 0003321 65.6446 294.4897 15.68434900 73394 SurfSat 1 43614U 18070B 19332.34222077 .00002402 00000-0 63695-4 0 9990 2 43614 93.0391 70.9198 0017389 45.8623 314.4057 15.38257694 67406 CP-7 DAVE 1 43615U 18070C 19332.35767490 .00002359 00000-0 62752-4 0 9999 2 43615 93.0392 70.9241 0017534 45.2067 315.0609 15.38153173 67402 ELFIN-B 1 43616U 18070D 19332.35132728 .00003197 00000-0 82411-4 0 9995 2 43616 93.0353 70.8286 0018210 47.6528 312.6265 15.39080965 67420 ELFIN-A 1 43617U 18070E 19332.33850209 .00003513 00000-0 90293-4 0 9994 2 43617 93.0410 71.1665 0017323 45.1501 315.1157 15.39184959 67424 STARS-Me Mother 1 43640U 98067PQ 19332.04730568 .00011188 00000-0 13558-3 0 9992 2 43640 51.6368 251.3424 0004486 1.7324 358.3684 15.61182779 65069 CubeBel 1 1 43666U 18083E 19332.87149598 .00001409 00000-0 72819-4 0 9999 2 43666 97.5078 356.1591 0014595 348.2130 135.4761 15.17861463 60036 Changshagaoxin 1 43669U 18083H 19332.87589297 .00000929 00000-0 50392-4 0 9994 2 43669 97.4946 354.9713 0010374 342.9716 140.4894 15.16995490 59966 Ten-Koh 1 43677U 18084G 19332.38633408 .00000168 00000-0 23147-4 0 9997 2 43677 97.8668 85.2069 0017479 104.3012 256.0148 14.90221087 58847 PO-101 1 43678U 18084H 19332.75594821 .00000355 00000-0 41090-4 0 9999 2 43678 97.8662 86.4529 0011186 120.8796 239.3546 14.91590592 58956 IRVINE 01 1 43693U 18088D 19332.17983334 .00002092 00000-0 89605-4 0 9991 2 43693 85.0375 210.7811 0016904 321.8299 38.1744 15.22003719 58076 QO-100 1 43700U 18090A 19332.77441030 .00000143 00000-0 00000 0 0 9993 2 43700 0.0141 39.0375 0001290 235.9989 96.9394 1.00272774 3931 Reaktor Hello World 1 43743U 18096AA 19332.77189572 .00001547 00000-0 60992-4 0 9996 2 43743 97.4451 42.4752 0019554 118.3290 0.4275 15.26950880 55614 MinXSS-2 1 43758U 18099A 19332.81498105 .00000830 00000-0 79919-4 0 9998 2 43758 97.7303 42.8120 0016772 139.4097 220.8378 14.95519316 53812 AO-95 1 43770U 18099N 19332.43331836 .00000240 00000-0 27220-4 0 9990 2 43770 97.7304 42.0906 0015495 146.7043 213.5155 14.94862539 53734 RANGE-B 1 43772U 18099Q 19332.27532662 .00000793 00000-0 77599-4 0 9991 2 43772 97.7361 42.2309 0015372 135.7554 224.4898 14.95002179 53706 RANGE-A 1 43773U 18099R 19332.69106428 .00000441 00000-0 45626-4 0 9991 2 43773 97.7250 42.1310 0014738 133.6665 226.5780 14.94873687 53768 MOVE-II 1 43780U 18099Y 19332.76785716 .00000419 00000-0 43284-4 0 9993 2 43780 97.7298 42.5175 0014558 143.6399 216.5813 14.95207830 53775 SNUSat 2 1 43782U 18099AA 19332.43138075 .00000321 00000-0 34423-4 0 9996 2 43782 97.7300 42.2275 0013919 133.9513 226.2858 14.95139233 53733 SnugLite 1 43784U 18099AC 19332.07765459 .00000743 00000-0 72632-4 0 9992 2 43784 97.7264 41.7634 0016172 143.4429 216.7899 14.95225710 53693 ITASat 1 1 43786U 18099AE 19332.74497627 .00000667 00000-0 65770-4 0 9997 2 43786 97.7317 42.6714 0016315 140.4038 219.8377 14.95218216 53794 EAGLET 1 1 43790U 18099AJ 19332.72110225 -.00000102 00000-0 -39875-5 0 9990 2 43790 97.7305 42.8132 0014346 144.6481 215.5694 14.95592506 53491 ESEO 1 43792U 18099AL 19332.78788695 -.00000254 00000-0 -17690-4 0 9998 2 43792 97.7283 42.7899 0014181 141.4062 218.8175 14.95546750 53562 CSIM 1 43793U 18099AM 19332.74902237 .00001031 00000-0 97282-4 0 9992 2 43793 97.7261 42.6527 0014310 139.8070 220.4212 14.95847608 53534 Astrocast 0.1 1 43798U 18099AS 19332.19931341 .00000199 00000-0 23030-4 0 9998 2 43798 97.7293 42.3611 0013678 127.8363 232.4098 14.95783376 53719 JO-97 1 43803U 18099AX 19332.78150540 -.00000109 00000-0 -46003-5 0 9993 2 43803 97.7275 42.5798 0016112 140.9641 219.2746 14.95368926 53796 Suomi 100 1 43804U 18099AY 19332.44667651 -.00000108 00000-0 -45005-5 0 9993 2 43804 97.7276 42.2450 0016183 142.0842 218.1522 14.95364333 53758 Al Farabi 2 1 43805U 18099AZ 19332.83622214 .00001195 00000-0 11304-3 0 9991 2 43805 97.7285 42.6656 0016311 140.6415 219.5982 14.95454968 53810 PWSat 2 1 43814U 18099BJ 19332.42477958 .00023927 00000-0 17158-2 0 9998 2 43814 97.7763 45.5910 0012720 160.3909 199.7804 15.04279230 53273 CHOMPTT 1 43855U 18104G 19331.97564044 .00001457 00000-0 60606-4 0 9994 2 43855 085.0339 309.1287 0020147 077.8616 282.4871 15.22624203052718 ISAT 1 43879U 18111D 19332.72447041 -.00000144 00000-0 -76160-5 0 9996 2 43879 97.7099 238.2809 0012602 193.7358 166.3522 14.96094413 48326 UWE-4 1 43880U 18111E 19332.00120040 .00000107 00000-0 14596-4 0 9997 2 43880 97.7105 237.7356 0011800 196.9483 163.1346 14.96331329 48228 Sparrow 1 43881U 18111F 19332.72636821 -.00000143 00000-0 -75039-5 0 9998 2 43881 97.7114 238.4920 0011910 193.1032 166.9881 14.96381371 48323 Lume 1 1 43908U 18111AJ 19332.38863682 .00001039 00000-0 44671-4 0 9997 2 43908 97.2787 233.1046 0022633 133.8739 226.4374 15.24630771 51230 FO-98 1 43933U 19003B 19332.76300212 .00000809 00000-0 38454-4 0 9999 2 43933 97.2618 24.8939 0016728 228.0062 227.4244 15.21835767 47850 FO-99 1 43937U 19003F 19332.76662603 .00001474 00000-0 63478-4 0 9991 2 43937 97.2577 25.5994 0023458 213.7903 285.3700 15.23914603 47916 Delphini 1 1 44030U 98067PW 19332.08178527 .00013873 00000-0 17457-3 0 9996 2 44030 51.6368 256.8333 0005019 50.0899 310.0535 15.59948688 46862 MYSat 1 1 44045U 18092F 19332.39050726 .00003131 00000-0 99772-4 0 9993 2 44045 51.6456 302.6360 0010923 315.3662 44.6442 15.35657006 44232 AstroCast 0.2 1 44083U 19018F 19332.84804804 .00000621 00000-0 30630-4 0 9997 2 44083 97.4492 31.3728 0014710 152.1134 208.0893 15.21535638 36727 AISTechSat 3 1 44103U 19018AB 19332.74108318 .00001014 00000-0 46246-4 0 9993 2 44103 97.4374 31.3234 0013729 169.3952 339.1023 15.22855683 36736 AISat 1 1 44104U 19018AC 19332.85054586 .00000907 00000-0 31778-4 0 9997 2 44104 97.4907 35.9989 0057962 206.9662 152.8565 15.30717240 36960 Raavana-1 1 44329U 98067QE 19332.39646778 .00007996 00000-0 12736-3 0 9993 2 44329 51.6404 264.2220 0006223 337.1467 22.9246 15.54237863 25541 Uguisu 1 44330U 98067QF 19332.85087627 .00007336 00000-0 11764-3 0 9996 2 44330 51.6401 262.0058 0006203 337.3214 22.7502 15.54196165 25592 NepaliSat-1 1 44331U 98067QG 19332.07134283 .00008899 00000-0 14076-3 0 9996 2 44331 51.6406 265.8011 0006242 337.1514 22.9198 15.54267143 25488 Prox-1 1 44339U 19036A 19332.05743634 .00000828 00000-0 14772-3 0 9994 2 44339 24.0052 305.1573 0011758 104.5227 255.6587 14.52753008 22664 OBJECT H 1 44346U 19036H 19332.22844797 .00359304 00000-0 52341-2 0 9992 2 44346 28.5334 266.2035 0353416 315.9231 41.3680 15.05875204 23394 OBJECT J 1 44347U 19036J 19332.21082402 .00050926 00000-0 76523-3 0 9996 2 44347 28.5316 262.2386 0356324 322.3471 35.2669 15.04905791 23437 OBJECT K 1 44348U 19036K 19331.94954587 .00011817 00000-0 18180-3 0 9999 2 44348 028.5228 267.7815 0381986 313.3685 043.5641 14.98759453023353 Armadillo 1 44352U 19036P 19332.89022458 .00015878 00000-0 24768-3 0 9992 2 44352 28.5377 260.9684 0375922 324.1892 33.4002 14.99874010 23442 NO-104 1 44354U 19036R 19331.87165869 .00011771 00000-0 17860-3 0 9998 2 44354 028.5333 267.2725 0379440 313.6076 043.3614 14.99563303023346 NO-103 1 44355U 19036S 19332.84584764 .00019554 00000-0 29593-3 0 9999 2 44355 28.5327 259.5924 0371225 326.1277 31.6112 15.01556022 23493 Oculus-ASR 1 44356U 19036T 19332.90582090 .00050941 00000-0 69857-3 0 9999 2 44356 28.5304 254.0981 0349549 334.7866 23.5912 15.08198171 23565 CP9 1 44360U 19036X 19332.89754814 .00030523 00000-0 41072-3 0 9990 2 44360 28.5223 255.8233 0367739 332.3963 25.7469 15.04866383 23410 Move-IIb 1 44398U 19038N 19332.71856790 .00001182 00000-0 72311-4 0 9990 2 44398 97.5098 291.9356 0027061 101.3637 259.0635 15.11874592 22096 SONATE 1 44400U 19038Q 19332.38943785 .00000497 00000-0 32699-4 0 9991 2 44400 97.5118 291.6273 0026970 100.9672 259.4594 15.11753270 22042 BeeSat 9 1 44412U 19038AC 19332.37425278 .00000912 00000-0 56606-4 0 9991 2 44412 97.5110 291.6403 0024492 106.2212 254.1716 15.11959614 21731 JAISAT-1 1 44419U 19038F 19332.39290898 .00000799 00000-0 49439-4 0 9997 2 44419 97.5113 291.7705 0023334 105.8019 254.5787 15.12447109 22051 LightSail-2 1 44420U 19036AC 19332.02261226 .00005941 00000-0 13353-2 0 9998 2 44420 24.0083 304.9263 0023984 96.3626 263.9552 14.53760278 20803 Taurus 1 1 44530U 19059C 19332.79865274 .00000375 00000-0 11961-3 0 9992 2 44530 98.5819 46.8898 0014978 47.0929 313.1519 14.45280030 11216 /EX
